STARLINK-3103, 49177

Orbit data source: Space-Track

STARLINK-3103, 49177 is a payload satellite owned by SpaceX/Seattle (US) in LEO that was launched on Tue, 14 Sep 2021 UTC via an FALCON 9 launch vehicle from the Air Force Western Test Range (AFWTR). Payload-class satellites include a variety of spacecraft equipped with specific instruments for various scientific and technological missions. These include communications satellites like Starlink; space stations such as the ISS; scientific satellites like the Hubble; Earth observation satellites from companies like Planet Labs, Umbra, and HawkEye 360; GPS; miniature CubeSats for education and research; and military/defense satellites.

Loading next visibility...
Identifier
49177, 2021-082AZ
Orbit
LEO
Country
Flag of USUS
Related business
Manufacturer
SpaceX/Seattle
Mission
Operational Commercial Communications
Bus & Motor
STARLINK, Unknown motor
Mass
297 kg wet, ~275 kg dry
Launch date (UTC)
2021-09-14 (5 years ago)
Launch vehicle
FALCON 9
Launch site
Air Force Western Test Range (AFWTR)
Object type
Payload
Rocket body
Debris
Shape & HBR
Box + 1 Pan, 10.1 m
Radar Cross Section
13.562 m², Large (>1 m²)

Expand to show TLE details & history
Last TLE update: 19 hours ago

TLE from 19 hours ago
0 STARLINK-3103
1 49177U 21082AZ  26125.33846528 -.00004341  00000-0 -35596-3 0  9991
2 49177  69.9991 111.6326 0003281 265.3908  94.6877 14.98355756256647
Epoch: 2026-05-05T08:07Z
TLE epoch observation values (Epoch: 2026-05-05T08:07:23.400Z)
Latitude
0.00005°
Longitude
126.57038°
Altitude
574.587 km
Speed
7.574 km/s
True Right ascension
07h 26m 31s
True Declination
0° 00' 00"
Sunlit
Object was in daylight at epoch
Visualization orbit readout
Latitude
Unknown
Longitude
Unknown
Altitude
Unknown
Speed
Unknown
Apparent Right ascension
Unknown
Apparent Declination
Unknown
Sunlit
N/A
Visualization observer readout
Local Sidereal Time
10:39:23
Azimuth
Unknown
Elevation
Unknown
Doppler factor
Unknown
Orbital elements
Apogee altitude
572.204 km
Perigee altitude
567.645 km
Semi-major axis
6,948.062 km
Eccentricity
0.00033
Inclination
69.9991°
RAAN
111.6326°
Arg. of periapsis
265.3908°
True anomaly
94.72517°
Mean anomaly
94.6877°
Eccentric anomaly
94.70644°
Mean motion
3.74755 °/min
Orbital period
96.06 mins
BSTAR
-0.00035596
Loading maneuver chart data...
Computing Atmospheric mass density...

Documentation

Showing up to 5 results
|